Check out our new BloomSky Weather System.

Active alerts


No alerts


Thunder radar  blitzortung!


Rain radar more information rain snow radar


Visit our other weather sites:

Template documentation
and downloads

And another site



Weather Underground History page Text

Daily Summary for September 3, 2017 Units:  English    Metric   Both
« Previous Day
Next Day »
Daily Weekly Monthly Yearly Custom
  High: Low: Average:
Temperature: 91.8 °F 72.3 °F 81.8 °F
Dew Point: 77.0 °F 70.3 °F 73.3 °F
Humidity: 99 % 50 % 78 %
Wind Speed: 6.0 mph 0.0 mph 0.6 mph
Wind Gust: 9.0 mph - -
Wind:- - SSE
Pressure: 30.09 in 30.00 in -
Precipitation: 0.00 in    
Historical Graphs
 
 
Tabular Data for September 3, 2017
Time Temperature Dew Point Pressure Wind Wind Speed Wind Gust Humidity Rainfall Rate (Hourly)
00:03 77.7 °F 73.6 °F 30.02 in Calm     87 % 0.00 in
00:05 77.5 °F 73.4 °F 30.02 in Calm     87 % 0.00 in
00:10 77.4 °F 73.6 °F 30.02 in Calm     88 % 0.00 in
00:15 77.2 °F 73.4 °F 30.02 in Calm     88 % 0.00 in
00:20 77.2 °F 73.8 °F 30.02 in Calm     89 % 0.00 in
00:25 77.0 °F 73.6 °F 30.02 in Calm     89 % 0.00 in
00:30 77.0 °F 73.8 °F 30.02 in Calm     90 % 0.00 in
00:35 77.0 °F 73.8 °F 30.02 in Calm     90 % 0.00 in
00:40 77.0 °F 73.8 °F 30.02 in Calm     90 % 0.00 in
00:45 77.0 °F 73.8 °F 30.02 in Calm     90 % 0.00 in
00:50 76.8 °F 73.6 °F 30.02 in Calm     90 % 0.00 in
00:55 76.8 °F 73.9 °F 30.02 in Calm     91 % 0.00 in
01:00 76.8 °F 73.6 °F 30.01 in Calm     90 % 0.00 in
01:05 76.8 °F 73.6 °F 30.01 in Calm     90 % 0.00 in
01:10 76.6 °F 73.8 °F 30.01 in Calm     91 % 0.00 in
01:15 76.5 °F 73.6 °F 30.01 in Calm     91 % 0.00 in
01:20 76.3 °F 73.4 °F 30.02 in Calm     91 % 0.00 in
01:25 76.1 °F 73.2 °F 30.01 in Calm     91 % 0.00 in
01:30 75.9 °F 73.4 °F 30.02 in Calm     92 % 0.00 in
01:35 75.9 °F 73.4 °F 30.02 in Calm     92 % 0.00 in
01:40 75.7 °F 73.6 °F 30.02 in Calm     93 % 0.00 in
01:46 75.7 °F 73.6 °F 30.01 in Calm     93 % 0.00 in
01:51 75.6 °F 73.8 °F 30.01 in Calm     94 % 0.00 in
01:53 75.6 °F 73.8 °F 30.02 in Calm     94 % 0.00 in
01:56 75.6 °F 73.8 °F 30.02 in Calm     94 % 0.00 in
02:01 75.6 °F 73.8 °F 30.02 in Calm     94 % 0.00 in
02:06 75.6 °F 73.8 °F 30.02 in Calm     94 % 0.00 in
02:11 75.6 °F 73.8 °F 30.02 in Calm     94 % 0.00 in
02:16 75.6 °F 73.8 °F 30.02 in Calm     94 % 0.00 in
02:21 75.6 °F 73.8 °F 30.02 in Calm     94 % 0.00 in
02:26 75.4 °F 73.6 °F 30.03 in Calm     94 % 0.00 in
02:31 75.2 °F 73.4 °F 30.03 in Calm     94 % 0.00 in
02:36 75.0 °F 73.2 °F 30.03 in Calm     94 % 0.00 in
02:41 75.0 °F 73.4 °F 30.03 in Calm     95 % 0.00 in
02:46 75.0 °F 73.4 °F 30.03 in Calm     95 % 0.00 in
02:51 74.8 °F 73.2 °F 30.03 in Calm     95 % 0.00 in
02:56 74.7 °F 73.2 °F 30.03 in Calm     95 % 0.00 in
03:01 74.7 °F 73.2 °F 30.03 in Calm     95 % 0.00 in
03:06 74.7 °F 73.2 °F 30.03 in Calm     95 % 0.00 in
03:11 74.7 °F 73.2 °F 30.04 in Calm     95 % 0.00 in
03:16 74.7 °F 73.4 °F 30.04 in Calm     96 % 0.00 in
03:21 74.7 °F 73.4 °F 30.04 in Calm     96 % 0.00 in
03:26 74.7 °F 73.4 °F 30.04 in Calm     96 % 0.00 in
03:32 74.5 °F 73.2 °F 30.04 in Calm     96 % 0.00 in
03:37 74.5 °F 73.2 °F 30.04 in Calm     96 % 0.00 in
03:42 74.5 °F 73.2 °F 30.04 in Calm     96 % 0.00 in
03:47 74.3 °F 73.0 °F 30.04 in Calm     96 % 0.00 in
03:52 74.1 °F 72.9 °F 30.04 in Calm     96 % 0.00 in
03:57 74.1 °F 72.9 °F 30.04 in Calm     96 % 0.00 in
04:02 74.1 °F 72.9 °F 30.04 in Calm     96 % 0.00 in
04:07 73.9 °F 72.7 °F 30.04 in Calm     96 % 0.00 in
04:12 73.8 °F 72.5 °F 30.04 in Calm     96 % 0.00 in
04:17 73.8 °F 72.5 °F 30.04 in Calm     96 % 0.00 in
04:22 73.8 °F 72.5 °F 30.04 in Calm     96 % 0.00 in
04:27 73.6 °F 72.7 °F 30.04 in Calm     97 % 0.00 in
04:32 73.6 °F 72.7 °F 30.04 in Calm     97 % 0.00 in
04:37 73.6 °F 72.7 °F 30.04 in Calm     97 % 0.00 in
04:42 73.8 °F 72.9 °F 30.04 in Calm     97 % 0.00 in
04:47 73.8 °F 72.9 °F 30.04 in Calm     97 % 0.00 in
04:52 73.9 °F 73.0 °F 30.04 in Calm     97 % 0.00 in
04:57 73.9 °F 73.0 °F 30.04 in Calm     97 % 0.00 in
05:02 73.9 °F 73.0 °F 30.04 in Calm     97 % 0.00 in
05:07 73.8 °F 72.9 °F 30.04 in Calm     97 % 0.00 in
05:12 73.6 °F 72.7 °F 30.04 in Calm     97 % 0.00 in
05:17 73.6 °F 72.7 °F 30.04 in Calm     97 % 0.00 in
05:22 73.6 °F 72.7 °F 30.04 in Calm     97 % 0.00 in
05:27 73.4 °F 72.5 °F 30.04 in Calm     97 % 0.00 in
05:32 73.2 °F 72.3 °F 30.04 in Calm     97 % 0.00 in
05:37 73.2 °F 72.3 °F 30.04 in Calm     97 % 0.00 in
05:42 73.2 °F 72.3 °F 30.04 in Calm     97 % 0.00 in
05:47 73.2 °F 72.3 °F 30.04 in Calm     97 % 0.00 in
05:52 73.0 °F 72.5 °F 30.04 in Calm     98 % 0.00 in
05:57 73.0 °F 72.5 °F 30.04 in Calm     98 % 0.00 in
06:02 73.0 °F 72.5 °F 30.04 in Calm     98 % 0.00 in
06:07 73.0 °F 72.5 °F 30.04 in Calm     98 % 0.00 in
06:12 73.0 °F 72.5 °F 30.04 in Calm     98 % 0.00 in
06:17 73.0 °F 72.5 °F 30.05 in Calm     98 % 0.00 in
06:18 73.0 °F 72.5 °F 30.05 in Calm     98 % 0.00 in
06:23 72.9 °F 72.3 °F 30.05 in Calm     98 % 0.00 in
06:28 72.9 °F 72.3 °F 30.05 in Calm     98 % 0.00 in
06:33 72.7 °F 72.1 °F 30.05 in Calm     98 % 0.00 in
06:38 72.7 °F 72.1 °F 30.05 in Calm     98 % 0.00 in
06:43 72.7 °F 72.1 °F 30.05 in Calm     98 % 0.00 in
06:48 72.7 °F 72.1 °F 30.05 in Calm     98 % 0.00 in
06:53 72.7 °F 72.1 °F 30.05 in Calm     98 % 0.00 in
06:58 72.7 °F 72.1 °F 30.06 in Calm     98 % 0.00 in
07:03 72.7 °F 72.1 °F 30.06 in Calm     98 % 0.00 in
07:08 72.5 °F 72.0 °F 30.06 in Calm     98 % 0.00 in
07:13 72.5 °F 72.0 °F 30.06 in Calm     98 % 0.00 in
07:18 72.3 °F 71.8 °F 30.06 in Calm     98 % 0.00 in
07:23 72.7 °F 72.3 °F 30.07 in Calm     99 % 0.00 in
07:28 72.7 °F 72.3 °F 30.07 in Calm     99 % 0.00 in
07:33 72.9 °F 72.5 °F 30.07 in Calm     99 % 0.00 in
07:38 73.0 °F 72.7 °F 30.07 in Calm     99 % 0.00 in
07:43 73.2 °F 72.9 °F 30.07 in Calm     99 % 0.00 in
07:48 73.6 °F 73.2 °F 30.07 in Calm     99 % 0.00 in
07:53 73.8 °F 73.4 °F 30.08 in Calm     99 % 0.00 in
07:58 73.8 °F 73.4 °F 30.08 in Calm     99 % 0.00 in
08:03 73.9 °F 73.6 °F 30.08 in Calm     99 % 0.00 in
08:08 74.1 °F 73.8 °F 30.08 in Calm     99 % 0.00 in
08:13 74.5 °F 74.1 °F 30.08 in Calm     99 % 0.00 in
08:18 74.7 °F 74.3 °F 30.08 in Calm     99 % 0.00 in
08:24 74.8 °F 74.3 °F 30.08 in Calm     98 % 0.00 in
08:29 75.0 °F 74.5 °F 30.08 in Calm     98 % 0.00 in
08:34 75.4 °F 74.8 °F 30.08 in Calm     98 % 0.00 in
08:39 75.7 °F 75.2 °F 30.08 in Calm     98 % 0.00 in
08:44 76.1 °F 75.6 °F 30.09 in Calm     98 % 0.00 in
08:49 76.5 °F 75.6 °F 30.09 in Calm     97 % 0.00 in
08:54 76.6 °F 75.4 °F 30.09 in Calm   1.0 mph 96 % 0.00 in
08:59 77.2 °F 75.9 °F 30.09 in SW 1.0 mph 2.0 mph 96 % 0.00 in
09:04 77.4 °F 75.6 °F 30.09 in West 1.0 mph 2.0 mph 94 % 0.00 in
09:09 77.7 °F 75.9 °F 30.09 in Calm   2.0 mph 94 % 0.00 in
09:14 78.4 °F 76.3 °F 30.09 in Calm   2.0 mph 93 % 0.00 in
09:19 79.2 °F 76.6 °F 30.09 in Calm   2.0 mph 92 % 0.00 in
09:24 79.5 °F 76.3 °F 30.09 in Calm   2.0 mph 90 % 0.00 in
09:29 79.7 °F 76.1 °F 30.09 in Calm   2.0 mph 89 % 0.00 in
09:34 80.2 °F 76.3 °F 30.09 in Calm   2.0 mph 88 % 0.00 in
09:39 81.0 °F 76.5 °F 30.09 in Calm   2.0 mph 86 % 0.00 in
09:44 82.0 °F 76.6 °F 30.09 in Calm   2.0 mph 84 % 0.00 in
09:49 83.1 °F 76.3 °F 30.09 in Calm   2.0 mph 80 % 0.00 in
09:54 83.5 °F 76.6 °F 30.09 in NE 3.0 mph 3.0 mph 80 % 0.00 in
09:59 83.7 °F 76.1 °F 30.09 in Calm   3.0 mph 78 % 0.00 in
10:04 84.0 °F 75.2 °F 30.09 in Calm   3.0 mph 75 % 0.00 in
10:09 84.7 °F 75.2 °F 30.09 in Calm   3.0 mph 73 % 0.00 in
10:14 85.5 °F 76.3 °F 30.09 in SSE 1.0 mph 3.0 mph 74 % 0.00 in
10:19 86.0 °F 75.6 °F 30.09 in Calm   3.0 mph 71 % 0.00 in
10:24 86.7 °F 75.4 °F 30.09 in Calm   2.0 mph 69 % 0.00 in
10:29 87.3 °F 76.3 °F 30.09 in Calm   2.0 mph 70 % 0.00 in
10:34 87.6 °F 75.4 °F 30.09 in SSW 1.0 mph 2.0 mph 67 % 0.00 in
10:39 87.8 °F 75.4 °F 30.09 in Calm   3.0 mph 67 % 0.00 in
10:44 88.2 °F 74.8 °F 30.09 in SSE 4.0 mph 4.0 mph 65 % 0.00 in
10:49 87.3 °F 75.4 °F 30.09 in ESE 1.0 mph 6.0 mph 68 % 0.00 in
10:54 86.9 °F 75.0 °F 30.09 in East 1.0 mph 7.0 mph 68 % 0.00 in
10:59 86.9 °F 75.6 °F 30.09 in ESE 4.0 mph 7.0 mph 69 % 0.00 in
11:04 87.1 °F 75.2 °F 30.09 in SSE 3.0 mph 7.0 mph 68 % 0.00 in
11:09 87.3 °F 76.6 °F 30.09 in SSE 1.0 mph 5.0 mph 71 % 0.00 in
11:14 88.0 °F 77.0 °F 30.09 in SSW 1.0 mph 5.0 mph 70 % 0.00 in
11:19 88.3 °F 75.0 °F 30.09 in SE 1.0 mph 5.0 mph 65 % 0.00 in
11:24 88.2 °F 75.4 °F 30.09 in SE 3.0 mph 4.0 mph 66 % 0.00 in
11:29 88.2 °F 75.4 °F 30.09 in SSE 2.0 mph 5.0 mph 66 % 0.00 in
11:34 88.0 °F 75.2 °F 30.09 in ESE 3.0 mph 5.0 mph 66 % 0.00 in
11:39 87.6 °F 75.4 °F 30.09 in East 4.0 mph 5.0 mph 67 % 0.00 in
11:44 87.4 °F 74.7 °F 30.09 in SSW 1.0 mph 5.0 mph 66 % 0.00 in
11:49 87.4 °F 75.2 °F 30.09 in ESE 1.0 mph 5.0 mph 67 % 0.00 in
11:54 87.6 °F 75.4 °F 30.09 in South 4.0 mph 7.0 mph 67 % 0.00 in
11:59 87.4 °F 74.7 °F 30.09 in SE 2.0 mph 7.0 mph 66 % 0.00 in
12:04 87.4 °F 75.2 °F 30.09 in SE 1.0 mph 7.0 mph 67 % 0.00 in
12:09 88.2 °F 76.3 °F 30.09 in ESE 1.0 mph 5.0 mph 68 % 0.00 in
12:14 88.7 °F 75.9 °F 30.09 in SSE 1.0 mph 5.0 mph 66 % 0.00 in
12:20 89.2 °F 74.5 °F 30.09 in ENE 1.0 mph 3.0 mph 62 % 0.00 in
12:25 89.4 °F 74.7 °F 30.09 in NNW 1.0 mph 5.0 mph 62 % 0.00 in
12:30 90.0 °F 76.6 °F 30.09 in ESE 1.0 mph 6.0 mph 65 % 0.00 in
12:35 91.0 °F 75.2 °F 30.09 in Calm   6.0 mph 60 % 0.00 in
12:40 91.4 °F 75.0 °F 30.09 in ENE 1.0 mph 4.0 mph 59 % 0.00 in
12:45 90.7 °F 73.9 °F 30.09 in SE 3.0 mph 4.0 mph 58 % 0.00 in
12:50 90.5 °F 73.8 °F 30.08 in SW 1.0 mph 5.0 mph 58 % 0.00 in
12:55 91.6 °F 76.6 °F 30.08 in Calm   5.0 mph 62 % 0.00 in
13:00 91.6 °F 74.7 °F 30.08 in ENE 3.0 mph 5.0 mph 58 % 0.00 in
13:05 90.7 °F 74.3 °F 30.08 in Calm   5.0 mph 59 % 0.00 in
13:10 90.3 °F 74.1 °F 30.08 in NW 3.0 mph 5.0 mph 59 % 0.00 in
13:15 89.4 °F 72.7 °F 30.07 in Calm   5.0 mph 58 % 0.00 in
13:20 89.1 °F 74.3 °F 30.07 in Calm   5.0 mph 62 % 0.00 in
13:25 88.5 °F 74.3 °F 30.07 in SE 2.0 mph 5.0 mph 63 % 0.00 in
13:30 88.5 °F 74.8 °F 30.07 in North 3.0 mph 5.0 mph 64 % 0.00 in
13:35 88.9 °F 74.7 °F 30.07 in Calm   4.0 mph 63 % 0.00 in
13:40 89.2 °F 73.9 °F 30.06 in ENE 1.0 mph 4.0 mph 61 % 0.00 in
13:45 89.1 °F 73.4 °F 30.06 in NW 2.0 mph 4.0 mph 60 % 0.00 in
13:50 89.1 °F 75.7 °F 30.06 in NW 1.0 mph 4.0 mph 65 % 0.00 in
13:55 89.2 °F 73.9 °F 30.06 in Calm   4.0 mph 61 % 0.00 in
14:00 89.4 °F 73.8 °F 30.06 in Calm   4.0 mph 60 % 0.00 in
14:05 89.4 °F 73.8 °F 30.06 in ENE 1.0 mph 4.0 mph 60 % 0.00 in
14:10 89.4 °F 74.1 °F 30.05 in Calm   5.0 mph 61 % 0.00 in
14:15 89.6 °F 73.9 °F 30.05 in NNE 1.0 mph 9.0 mph 60 % 0.00 in
14:20 89.2 °F 73.6 °F 30.05 in NNW 2.0 mph 9.0 mph 60 % 0.00 in
14:25 89.4 °F 73.8 °F 30.04 in NW 3.0 mph 9.0 mph 60 % 0.00 in
14:30 90.0 °F 73.8 °F 30.04 in WNW 5.0 mph 8.0 mph 59 % 0.00 in
14:35 90.7 °F 74.8 °F 30.04 in NW 2.0 mph 8.0 mph 60 % 0.00 in
14:40 90.5 °F 73.2 °F 30.04 in SSE 6.0 mph 8.0 mph 57 % 0.00 in
14:45 90.1 °F 72.9 °F 30.04 in SSW 3.0 mph 9.0 mph 57 % 0.00 in
14:50 90.0 °F 73.2 °F 30.04 in Calm   9.0 mph 58 % 0.00 in
14:55 90.3 °F 72.5 °F 30.03 in NW 2.0 mph 9.0 mph 56 % 0.00 in
15:00 90.7 °F 71.2 °F 30.03 in Calm   7.0 mph 53 % 0.00 in
15:05 90.7 °F 73.9 °F 30.03 in Calm   8.0 mph 58 % 0.00 in
15:10 90.9 °F 72.5 °F 30.03 in Calm   8.0 mph 55 % 0.00 in
15:15 91.6 °F 74.1 °F 30.02 in WNW 1.0 mph 8.0 mph 57 % 0.00 in
15:20 91.8 °F 72.7 °F 30.02 in ENE 3.0 mph 4.0 mph 54 % 0.00 in
15:25 91.6 °F 73.6 °F 30.02 in North 2.0 mph 4.0 mph 56 % 0.00 in
15:30 91.2 °F 72.9 °F 30.02 in ENE 3.0 mph 6.0 mph 55 % 0.00 in
15:35 90.9 °F 71.4 °F 30.02 in Calm   6.0 mph 53 % 0.00 in
15:40 91.0 °F 72.1 °F 30.02 in ESE 2.0 mph 6.0 mph 54 % 0.00 in
15:45 91.2 °F 71.6 °F 30.02 in ENE 3.0 mph 6.0 mph 53 % 0.00 in
15:50 91.6 °F 70.3 °F 30.01 in SE 2.0 mph 6.0 mph 50 % 0.00 in
15:55 91.6 °F 70.9 °F 30.01 in SSE 1.0 mph 6.0 mph 51 % 0.00 in
16:00 91.4 °F 73.0 °F 30.01 in NW 5.0 mph 7.0 mph 55 % 0.00 in
16:05 90.9 °F 70.9 °F 30.01 in East 2.0 mph 7.0 mph 52 % 0.00 in
16:10 90.5 °F 71.6 °F 30.01 in Calm   7.0 mph 54 % 0.00 in
16:15 90.7 °F 71.8 °F 30.01 in NNE 1.0 mph 8.0 mph 54 % 0.00 in
16:20 90.5 °F 71.1 °F 30.01 in NNW 1.0 mph 8.0 mph 53 % 0.00 in
16:25 90.7 °F 71.8 °F 30.01 in ENE 2.0 mph 8.0 mph 54 % 0.00 in
16:30 90.1 °F 71.2 °F 30.01 in NW 2.0 mph 6.0 mph 54 % 0.00 in
16:35 90.0 °F 71.6 °F 30.00 in WNW 1.0 mph 6.0 mph 55 % 0.00 in
16:40 90.3 °F 72.0 °F 30.01 in ENE 3.0 mph 6.0 mph 55 % 0.00 in
16:45 90.1 °F 72.3 °F 30.00 in NW 3.0 mph 6.0 mph 56 % 0.00 in
16:50 90.1 °F 71.2 °F 30.00 in West 1.0 mph 6.0 mph 54 % 0.00 in
16:55 90.1 °F 71.8 °F 30.00 in NW 2.0 mph 7.0 mph 55 % 0.00 in
17:00 90.3 °F 70.9 °F 30.00 in NE 3.0 mph 7.0 mph 53 % 0.00 in
17:05 90.3 °F 71.4 °F 30.00 in North 1.0 mph 6.0 mph 54 % 0.00 in
17:10 90.3 °F 71.4 °F 30.00 in SE 1.0 mph 5.0 mph 54 % 0.00 in
17:15 90.0 °F 71.1 °F 30.00 in ESE 3.0 mph 6.0 mph 54 % 0.00 in
17:20 90.0 °F 71.6 °F 30.00 in NNW 1.0 mph 6.0 mph 55 % 0.00 in
17:25 90.1 °F 71.2 °F 30.01 in NNE 1.0 mph 6.0 mph 54 % 0.00 in
17:30 90.5 °F 72.1 °F 30.00 in Calm   6.0 mph 55 % 0.00 in
17:36 90.7 °F 72.3 °F 30.00 in ENE 1.0 mph 5.0 mph 55 % 0.00 in
17:41 90.1 °F 71.8 °F 30.00 in ESE 2.0 mph 6.0 mph 55 % 0.00 in
17:46 89.8 °F 72.0 °F 30.00 in Calm   6.0 mph 56 % 0.00 in
17:51 89.8 °F 71.4 °F 30.00 in Calm   6.0 mph 55 % 0.00 in
17:56 89.6 °F 71.2 °F 30.00 in Calm   5.0 mph 55 % 0.00 in
18:01 89.4 °F 71.6 °F 30.00 in Calm   5.0 mph 56 % 0.00 in
18:06 89.4 °F 72.1 °F 30.00 in ENE 1.0 mph 5.0 mph 57 % 0.00 in
18:11 89.1 °F 71.8 °F 30.00 in Calm   5.0 mph 57 % 0.00 in
18:16 88.9 °F 71.6 °F 30.00 in NNW 2.0 mph 4.0 mph 57 % 0.00 in
18:21 88.3 °F 71.6 °F 30.00 in Calm   4.0 mph 58 % 0.00 in
18:26 88.3 °F 71.6 °F 30.00 in NNW 1.0 mph 4.0 mph 58 % 0.00 in
18:31 88.0 °F 71.4 °F 30.00 in NE 1.0 mph 4.0 mph 58 % 0.00 in
18:36 88.0 °F 71.4 °F 30.00 in Calm   4.0 mph 58 % 0.00 in
18:41 87.6 °F 71.1 °F 30.00 in NE 2.0 mph 4.0 mph 58 % 0.00 in
18:46 87.6 °F 71.6 °F 30.00 in East 2.0 mph 4.0 mph 59 % 0.00 in
18:51 87.6 °F 71.6 °F 30.00 in East 1.0 mph 4.0 mph 59 % 0.00 in
18:56 87.6 °F 71.6 °F 30.00 in East 1.0 mph 5.0 mph 59 % 0.00 in
19:01 87.4 °F 71.4 °F 30.00 in East 2.0 mph 5.0 mph 59 % 0.00 in
19:06 87.4 °F 71.8 °F 30.00 in East 1.0 mph 5.0 mph 60 % 0.00 in
19:11 87.3 °F 71.6 °F 30.00 in SE 1.0 mph 3.0 mph 60 % 0.00 in
19:16 86.7 °F 71.2 °F 30.00 in Calm   5.0 mph 60 % 0.00 in
19:21 86.5 °F 71.4 °F 30.00 in Calm   5.0 mph 61 % 0.00 in
19:26 86.2 °F 71.6 °F 30.00 in ENE 2.0 mph 5.0 mph 62 % 0.00 in
19:31 85.8 °F 71.2 °F 30.00 in Calm   3.0 mph 62 % 0.00 in
19:36 85.6 °F 71.1 °F 30.00 in Calm   3.0 mph 62 % 0.00 in
19:41 85.3 °F 71.2 °F 30.00 in Calm   2.0 mph 63 % 0.00 in
19:46 84.9 °F 71.4 °F 30.00 in ESE 1.0 mph 2.0 mph 64 % 0.00 in
19:51 84.6 °F 71.4 °F 30.00 in Calm   2.0 mph 65 % 0.00 in
19:56 84.4 °F 71.2 °F 30.01 in ESE 1.0 mph 2.0 mph 65 % 0.00 in
20:01 84.0 °F 71.1 °F 30.01 in Calm   2.0 mph 65 % 0.00 in
20:06 83.8 °F 71.2 °F 30.01 in Calm   2.0 mph 66 % 0.00 in
20:11 83.7 °F 71.6 °F 30.01 in Calm   2.0 mph 67 % 0.00 in
20:16 83.3 °F 71.2 °F 30.01 in Calm   1.0 mph 67 % 0.00 in
20:21 83.1 °F 71.1 °F 30.01 in Calm   1.0 mph 67 % 0.00 in
20:26 82.9 °F 71.2 °F 30.01 in Calm   1.0 mph 68 % 0.00 in
20:31 82.8 °F 71.1 °F 30.01 in Calm   1.0 mph 68 % 0.00 in
20:36 82.6 °F 71.4 °F 30.01 in Calm   1.0 mph 69 % 0.00 in
20:41 82.2 °F 71.1 °F 30.01 in Calm   1.0 mph 69 % 0.00 in
20:47 82.2 °F 71.4 °F 30.01 in Calm   1.0 mph 70 % 0.00 in
20:52 82.0 °F 71.2 °F 30.01 in Calm   1.0 mph 70 % 0.00 in
20:57 81.9 °F 71.6 °F 30.02 in Calm   1.0 mph 71 % 0.00 in
21:02 81.7 °F 71.4 °F 30.02 in ESE 3.0 mph 3.0 mph 71 % 0.00 in
21:07 81.7 °F 71.8 °F 30.02 in Calm   3.0 mph 72 % 0.00 in
21:12 81.7 °F 71.8 °F 30.02 in Calm   3.0 mph 72 % 0.00 in
21:17 81.7 °F 72.1 °F 30.03 in SE 1.0 mph 3.0 mph 73 % 0.00 in
21:22 81.5 °F 72.3 °F 30.03 in Calm   2.0 mph 74 % 0.00 in
21:27 81.5 °F 72.9 °F 30.03 in East 2.0 mph 3.0 mph 75 % 0.00 in
21:32 81.5 °F 73.2 °F 30.03 in Calm   3.0 mph 76 % 0.00 in
21:37 81.3 °F 73.0 °F 30.03 in ESE 2.0 mph 3.0 mph 76 % 0.00 in
21:42 81.1 °F 73.2 °F 30.04 in Calm   3.0 mph 77 % 0.00 in
21:47 81.1 °F 73.6 °F 30.04 in ESE 1.0 mph 3.0 mph 78 % 0.00 in
21:52 81.0 °F 73.4 °F 30.04 in ESE 1.0 mph 3.0 mph 78 % 0.00 in
21:55 81.0 °F 73.8 °F 30.04 in Calm   3.0 mph 79 % 0.00 in
22:00 80.8 °F 73.6 °F 30.04 in ESE 1.0 mph 3.0 mph 79 % 0.00 in
22:05 80.8 °F 73.9 °F 30.04 in SE 1.0 mph 2.0 mph 80 % 0.00 in
22:10 80.6 °F 73.9 °F 30.04 in Calm   3.0 mph 80 % 0.00 in
22:15 80.4 °F 74.1 °F 30.04 in ESE 1.0 mph 3.0 mph 81 % 0.00 in
22:19 80.4 °F 74.1 °F 30.04 in SE 1.0 mph 3.0 mph 81 % 0.00 in
22:20 80.4 °F 74.1 °F 30.04 in East 1.0 mph 3.0 mph 81 % 0.00 in
22:24 80.4 °F 74.1 °F 30.04 in ESE 1.0 mph 3.0 mph 81 % 0.00 in
22:29 80.2 °F 73.9 °F 30.04 in SE 1.0 mph 2.0 mph 81 % 0.00 in
22:34 80.2 °F 73.9 °F 30.04 in East 2.0 mph 2.0 mph 81 % 0.00 in
22:39 80.2 °F 73.9 °F 30.04 in SE 1.0 mph 2.0 mph 81 % 0.00 in
22:44 80.1 °F 73.8 °F 30.04 in ESE 1.0 mph 2.0 mph 81 % 0.00 in
22:49 80.1 °F 73.8 °F 30.04 in Calm   2.0 mph 81 % 0.00 in
22:54 80.1 °F 73.8 °F 30.04 in Calm   2.0 mph 81 % 0.00 in
22:59 79.9 °F 73.6 °F 30.04 in Calm   2.0 mph 81 % 0.00 in
23:04 79.5 °F 73.6 °F 30.04 in Calm   2.0 mph 82 % 0.00 in
23:09 79.2 °F 73.2 °F 30.04 in Calm   1.0 mph 82 % 0.00 in
23:14 78.6 °F 73.0 °F 30.04 in Calm   1.0 mph 83 % 0.00 in
23:19 78.4 °F 73.2 °F 30.04 in Calm   1.0 mph 84 % 0.00 in
23:24 78.4 °F 73.2 °F 30.04 in Calm   1.0 mph 84 % 0.00 in
23:29 78.4 °F 73.2 °F 30.04 in Calm     84 % 0.00 in
23:34 78.3 °F 73.0 °F 30.04 in Calm     84 % 0.00 in
23:39 77.9 °F 72.7 °F 30.04 in Calm     84 % 0.00 in
23:44 77.7 °F 72.9 °F 30.04 in Calm     85 % 0.00 in
23:49 77.5 °F 72.7 °F 30.04 in Calm     85 % 0.00 in
23:54 77.5 °F 73.0 °F 30.04 in Calm     86 % 0.00 in
23:59 77.7 °F 72.9 °F 30.04 in Calm   1.0 mph 85 % 0.00 in
Spring, Texas: Villages of Bridgestone
Compliments of Weather Underground - 2.75 mb

Script developed by  Jim McMurry - jmcmurry@mwt.net Adapted for the template by  Wim van der Kuil - Leuven-Template.eu

You find our weather info also at:

UK Metoffice

WeatherCloud

Weather Underground

Mid-South Weather Network

AWEKAS

Citizen Weather Observer Program (CWOP)

HAMweather, WeatherForYou, PWS Weather

Equipment we use:

Weather-station
Davis Vantage Vue

Weather-program
Meteohub

Weather-server
Debian 7.9 x86 (Guest)

Provider
DreamHost

Davis Vantage Vue

Meteohub

Debian 7.9 x86 (Guest)

DreamHost